TimeCST,TemperatureF,Dew PointF,Humidity,Sea Level PressureIn,VisibilityMPH,Wind Direction,Wind SpeedMPH,Gust SpeedMPH,PrecipitationIn,Events,Conditions,WindDirDegrees,DateUTC
12:53 AM,8.1,3.9,83,30.25,2.5,East,13.8,-,0.00,Snow,Light Snow,100,2013-12-08 06:53:00
1:53 AM,8.1,3.9,83,30.20,2.5,ESE,11.5,-,0.00,Snow,Light Snow,110,2013-12-08 07:53:00
2:16 AM,8.6,3.2,79,30.03,3.0,ESE,10.4,-,0.00,Snow,Light Snow,110,2013-12-08 08:16:00
2:23 AM,8.6,3.2,79,30.03,2.5,ESE,10.4,-,0.00,Snow,Light Snow,110,2013-12-08 08:23:00
2:53 AM,8.1,3.9,83,30.17,2.0,ESE,12.7,-,0.00,Snow,Light Snow,110,2013-12-08 08:53:00
3:04 AM,8.6,3.2,79,30.01,1.5,ESE,11.5,-,0.00,Snow,Light Snow,110,2013-12-08 09:04:00
3:27 AM,8.6,3.2,79,30.00,0.8,ESE,11.5,-,0.00,Snow,Light Snow,110,2013-12-08 09:27:00
3:42 AM,8.6,3.2,79,30.00,1.0,East,10.4,-,0.00,Snow,Light Snow,100,2013-12-08 09:42:00
3:50 AM,8.6,3.2,79,29.99,1.2,East,8.1,-,0.00,Snow,Light Snow,100,2013-12-08 09:50:00
3:53 AM,8.1,3.9,83,30.14,1.2,East,9.2,-,0.00,Snow,Light Snow,100,2013-12-08 09:53:00
4:15 AM,8.6,3.2,79,29.98,3.0,East,9.2,-,0.00,Snow,Light Snow,90,2013-12-08 10:15:00
4:43 AM,8.6,3.2,79,29.96,2.5,East,6.9,-,0.00,Snow,Light Snow,80,2013-12-08 10:43:00
4:53 AM,8.1,3.9,83,30.11,2.5,East,8.1,-,0.00,Snow,Light Snow,80,2013-12-08 10:53:00
5:53 AM,8.1,3.9,83,30.12,2.5,East,6.9,-,0.00,Snow,Light Snow,80,2013-12-08 11:53:00
6:24 AM,8.6,3.2,79,29.95,3.0,East,8.1,-,0.00,Snow,Light Snow,80,2013-12-08 12:24:00
6:35 AM,8.6,3.2,79,29.94,3.0,East,6.9,-,0.00,Snow,Light Snow,90,2013-12-08 12:35:00
6:53 AM,8.1,3.9,83,30.10,3.0,East,8.1,-,0.00,Snow,Light Snow,80,2013-12-08 12:53:00
7:53 AM,8.1,3.9,83,30.10,3.0,ENE,6.9,-,0.00,Snow,Light Snow,70,2013-12-08 13:53:00
8:12 AM,8.6,3.2,79,29.94,2.5,ENE,5.8,-,0.00,Snow,Light Snow,60,2013-12-08 14:12:00
8:53 AM,8.1,3.9,83,30.10,1.8,ENE,8.1,-,0.00,Snow,Light Snow,70,2013-12-08 14:53:00
9:53 AM,9.0,3.9,80,30.10,1.5,ENE,6.9,-,0.00,Snow,Light Snow,60,2013-12-08 15:53:00
10:53 AM,10.0,5.0,80,30.09,2.0,ENE,8.1,-,0.00,Snow,Light Snow,60,2013-12-08 16:53:00
11:19 AM,10.4,5.0,79,29.96,1.8,Variable,3.5,-,0.00,Snow,Light Snow,0,2013-12-08 17:19:00
11:26 AM,10.4,5.0,79,29.96,2.5,Calm,Calm,-,0.00,Snow,Light Snow,0,2013-12-08 17:26:00
11:53 AM,10.9,5.0,77,30.11,3.0,Calm,Calm,-,0.00,Snow,Light Snow,0,2013-12-08 17:53:00
12:53 PM,10.9,5.0,77,30.07,6.0,NNW,4.6,-,0.00,,Haze,340,2013-12-08 18:53:00
1:53 PM,12.0,6.1,77,30.07,1.8,NNW,5.8,-,0.00,Snow,Light Snow,330,2013-12-08 19:53:00
2:14 PM,12.2,6.8,79,29.92,0.8,NW,5.8,-,0.00,Snow,Light Snow,320,2013-12-08 20:14:00
2:35 PM,12.2,6.8,79,29.93,0.2,NW,8.1,-,0.00,Snow,Heavy Snow,310,2013-12-08 20:35:00
2:53 PM,12.0,7.0,80,30.08,0.5,WNW,5.8,-,0.00,Snow,Snow,300,2013-12-08 20:53:00
3:00 PM,12.2,6.8,79,29.94,1.0,WNW,6.9,-,0.00,Snow,Light Snow,300,2013-12-08 21:00:00
3:28 PM,12.2,6.8,79,29.95,1.5,WNW,9.2,-,0.00,Snow,Light Snow,290,2013-12-08 21:28:00
3:53 PM,12.9,8.1,81,30.11,1.0,WNW,5.8,-,0.00,Snow,Light Snow,290,2013-12-08 21:53:00
4:26 PM,12.2,8.6,85,29.99,3.0,West,8.1,-,0.00,Snow,Light Snow,280,2013-12-08 22:26:00
4:36 PM,12.2,6.8,79,29.99,6.0,West,9.2,-,0.00,,Haze,280,2013-12-08 22:36:00
4:53 PM,12.0,6.1,77,30.14,10.0,West,6.9,-,0.00,,Mostly Cloudy,280,2013-12-08 22:53:00
5:53 PM,10.0,3.9,76,30.18,10.0,WSW,5.8,-,N/A,,Clear,240,2013-12-08 23:53:00
6:53 PM,7.0,3.9,87,30.20,9.0,South,4.6,-,N/A,,Clear,190,2013-12-09 00:53:00
7:53 PM,-0.0,-2.9,88,30.24,9.0,WNW,8.1,-,N/A,,Clear,290,2013-12-09 01:53:00
8:53 PM,3.0,-4.0,73,30.27,10.0,WNW,13.8,-,N/A,,Clear,300,2013-12-09 02:53:00
9:53 PM,1.0,-6.0,72,30.32,10.0,NW,12.7,-,N/A,,Clear,320,2013-12-09 03:53:00
10:53 PM,-0.0,-8.0,69,30.33,10.0,NNW,12.7,-,N/A,,Clear,330,2013-12-09 04:53:00
11:53 PM,-2.9,-11.0,68,30.35,10.0,NW,9.2,-,N/A,,Clear,310,2013-12-09 05:53:00